Location: Star Dogged Moon Observatory
(29.7756°N, 82.0783°W)
Time: 16:17:21
(UTC-04:00)

Amateur Radio Satellites - All Passes

Search period start: 18 August 2017 15:47
Search period end: 19 August 2017 15:47
Location: Star Dogged Moon Observatory, 29.7756°N, 82.0783°W

Satellite Date Start Highest point End Downlink Frequencies (MHz)
Time Altitude Azimuth
BEESAT 3 18 Aug 15:59:25 16:03:22 66° 63° (ENE) 16:07:12 437.485
ITAMSAT 1 18 Aug 16:02:03 16:07:07 55° 74° (ENE) 16:12:12 435.822/435.867
BEESAT 2 18 Aug 16:07:08 16:10:22 23° 57° (ENE) 16:13:33 435.950
ITUPSAT 1 18 Aug 16:07:56 16:12:19 35° 99° (E) 16:16:40 437.325
UKube-1 18 Aug 16:13:39 16:16:03 15° 291° (WNW) 16:18:26 .
AO-7 18 Aug 16:51:49 16:59:55 54° 257° (WSW) 17:08:05 .
JUGNU 18 Aug 17:09:15 17:13:13 19° 195° (SSW) 17:17:11 437.505
BEESAT 18 Aug 17:13:08 17:17:32 38° 287° (WNW) 17:21:55 436.000
SRMSAT 18 Aug 17:13:30 17:18:41 32° 181° (S) 17:23:51 437.500
MOZHAYETS 4 18 Aug 17:21:31 17:25:42 35° 287° (WNW) 17:29:53
AO-85 18 Aug 17:23:49 17:27:17 22° 249° (WSW) 17:30:56 145.980
CUBESAT XI-V 18 Aug 17:33:38 17:38:15 52° 100° (E) 17:42:49 437.345
YUBILEINY 18 Aug 17:37:52 17:46:31 60° 278° (W) 17:55:11 435.215
ITAMSAT 1 18 Aug 17:44:32 17:46:48 13° 266° (W) 17:49:04 435.822/435.867
BEESAT 2 18 Aug 17:44:54 17:47:57 21° 250° (WSW) 17:50:57 435.950
ITUPSAT 1 18 Aug 17:46:40 17:49:48 18° 291° (WNW) 17:52:57 437.325
KKS-1 18 Aug 17:52:33 17:56:34 33° 99° (E) 18:00:33 437.445
CUTE-I 18 Aug 17:53:51 17:56:45 15° 66° (ENE) 17:59:38 437.470
LilacSat-2 18 Aug 18:00:14 18:02:14 14° 71° (ENE) 18:04:15 437.200
XW-2D 18 Aug 18:07:24 18:09:51 17° 71° (ENE) 18:12:18 145.860 - 145.880
Tancredo 1 18 Aug 18:15:55 18:18:46 55° 45° (NE) 18:21:35 437.200
XW-2B 18 Aug 18:17:50 18:20:45 22° 73° (ENE) 18:23:42 145.730 - 145.750
DOVE 4 18 Aug 18:20:33 18:25:50 82° 257° (WSW) 18:31:08 437.250
NUDT-PHONESAT 18 Aug 18:24:19 18:26:56 19° 72° (ENE) 18:29:32 437.300
XW-2C 18 Aug 18:36:05 18:39:36 40° 75° (ENE) 18:43:08 145.795 - 145.815
STARS 18 Aug 18:38:36 18:42:47 45° 100° (E) 18:46:56 437.465
ISS 18 Aug 18:39:08 18:41:45 22° 39° (NE) 18:44:22 437.550
XW-2F 18 Aug 18:50:19 18:53:59 63° 76° (ENE) 18:57:41 145.980 - 146.000
nSIGHT-1 18 Aug 18:50:47 18:53:41 30° 42° (NE) 18:56:35 .
SRMSAT 18 Aug 19:02:38 19:07:23 25° 191° (S) 19:12:09 437.500
CUBESAT XI-V 18 Aug 19:13:23 19:15:05 12° 293° (WNW) 19:16:46 437.345
HO-68 18 Aug 19:18:08 19:24:37 39° 69° (ENE) 19:31:07 435.675
KAITUO 1B 18 Aug 19:20:06 19:23:44 59° 259° (W) 19:27:24 145.475/437.950
KKS-1 18 Aug 19:30:07 19:32:47 16° 291° (WNW) 19:35:26 437.445
CUTE-I 18 Aug 19:31:02 19:36:16 54° 259° (W) 19:41:31 437.470
CUBEBUG 2 18 Aug 19:31:09 19:33:39 15° 70° (ENE) 19:36:07 437.445
LilacSat-2 18 Aug 19:33:03 19:36:13 26° 263° (W) 19:39:25 437.200
XW-2D 18 Aug 19:40:56 19:43:49 21° 264° (W) 19:46:43 145.860 - 145.880
CUTE 1.7 + AOD 2 18 Aug 19:45:35 19:49:37 47° 75° (ENE) 19:53:42 437.475
RS-15 18 Aug 19:49:29 19:57:47 21° 39° (NE) 20:05:46 29.354- 29.394
XW-2B 18 Aug 19:52:30 19:54:50 16° 265° (W) 19:57:11 145.730 - 145.750
NUDT-PHONESAT 18 Aug 19:58:08 20:00:39 18° 264° (W) 20:03:12 437.300
AAUSAT CUBESAT 2 18 Aug 19:58:09 20:00:41 16° 70° (ENE) 20:03:14 437.432
XW-2A 18 Aug 20:06:39 20:09:45 38° 75° (ENE) 20:12:51 145.665 - 145.685
ZACube-1 18 Aug 20:15:30 20:17:40 14° 70° (ENE) 20:19:48 437.345
ISS 18 Aug 20:15:34 20:18:08 22° 232° (SW) 20:20:42 437.550
STARS 18 Aug 20:17:10 20:18:39 12° 293° (WNW) 20:20:08 437.465
STRAND 1 18 Aug 20:17:46 20:22:22 34° 99° (E) 20:26:57 437.568
nSIGHT-1 18 Aug 20:27:59 20:29:49 14° 234° (SW) 20:31:40 .
AO-73 18 Aug 20:37:04 20:40:21 23° 72° (ENE) 20:43:36 145.935
SEEDS 18 Aug 20:38:24 20:42:30 58° 260° (W) 20:46:40 437.485
SRMSAT 18 Aug 20:53:21 20:56:00 13° 199° (SSW) 20:58:40 437.500
O/OREOS (USA 219) 18 Aug 20:53:59 20:58:27 54° 70° (ENE) 21:02:55 437.305
UWE-3 18 Aug 21:03:48 21:08:02 65° 259° (WSW) 21:12:12 435.000/436.395/437.385
CUBEBUG 2 18 Aug 21:06:02 21:09:59 33° 262° (W) 21:13:50 437.445
HO-68 18 Aug 21:06:05 21:12:16 31° 262° (W) 21:18:27 435.675
Oscar 11 18 Aug 21:24:03 21:28:17 67° 77° (ENE) 21:32:34 .
DELFI C3 18 Aug 21:27:53 21:29:50 13° 70° (ENE) 21:31:46 145.870
AAUSAT CUBESAT 2 18 Aug 21:32:14 21:35:50 29° 262° (W) 21:39:29 437.432
Max Valier Satellite 18 Aug 21:46:25 21:48:36 15° 71° (ENE) 21:50:47 145.860
ZACube-1 18 Aug 21:49:49 21:53:37 33° 262° (W) 21:57:22 437.345
STRAND 1 18 Aug 21:57:32 22:01:15 21° 291° (WNW) 22:04:59 437.568
RS-15 18 Aug 22:00:25 22:12:24 80° 63° (ENE) 22:23:39 29.354- 29.394
AO-73 18 Aug 22:13:25 22:16:28 19° 264° (W) 22:19:28 145.935
UNISAT 6 18 Aug 22:31:53 22:35:05 20° 96° (E) 22:38:19 437.425
PCSat 18 Aug 22:33:45 22:37:17 18° 105° (ESE) 22:40:48 145.827
EO-88 18 Aug 22:44:25 22:48:01 83° 78° (ENE) 22:51:39 145.990 - 145.960
FO-29 18 Aug 22:50:45 22:56:16 81° 102° (ESE) 23:01:26 435.910
DELFI C3 18 Aug 23:00:40 23:04:14 32° 262° (W) 23:07:50 145.870
TIGRISAT 18 Aug 23:06:50 23:11:02 50° 100° (E) 23:15:18 435.000
Max Valier Satellite 18 Aug 23:19:20 23:22:12 22° 263° (W) 23:25:05 145.860
PRISM 18 Aug 23:22:26 23:26:30 56° 101° (E) 23:30:29 437.425
ESTCUBE 1 18 Aug 23:38:22 23:42:10 27° 72° (ENE) 23:45:59 437.505/2401.250
UNISAT 6 19 Aug 00:08:10 00:11:41 25° 288° (WNW) 00:15:15 437.425
PCSat 19 Aug 00:15:05 00:20:14 44° 298° (WNW) 00:25:25 145.827
RS-15 19 Aug 00:15:38 00:23:18 21° 259° (W) 00:30:47 29.354- 29.394
SO-50 19 Aug 00:21:38 00:26:07 63° 298° (WNW) 00:30:35 436.795
LO-87 19 Aug 00:22:35 00:25:58 38° 261° (W) 00:29:21 145.935 - 145.965
SPROUT 19 Aug 00:23:02 00:26:04 19° 71° (ENE) 00:29:07 437.525
DUCHIFAT 1 19 Aug 00:28:18 00:30:28 14° 95° (E) 00:32:37 145.980
M-CUBED/EXP-1 PRIME 19 Aug 00:33:11 00:37:13 40° 102° (ESE) 00:40:58 437.505
TIGRISAT 19 Aug 00:46:43 00:47:15 10° 292° (WNW) 00:47:49 435.000
AIST 2D 19 Aug 01:00:36 01:04:00 44° 284° (WNW) 01:07:23 435.315
NANOSAT C BR1 19 Aug 01:10:12 01:14:20 58° 101° (E) 01:18:27 145.865
POLYITAN 1 19 Aug 01:12:31 01:16:43 72° 102° (ESE) 01:20:55 437.675
ESTCUBE 1 19 Aug 01:15:38 01:18:53 20° 264° (W) 01:22:09 437.505/2401.250
UKube-1 19 Aug 01:26:25 01:28:42 14° 68° (ENE) 01:30:59 .
QB50P2 19 Aug 01:27:32 01:31:42 64° 284° (WNW) 01:35:51 145.880/145.840
EO-79 19 Aug 01:29:06 01:33:16 68° 283° (WNW) 01:37:26 145.935-145.965
VELOX 1 19 Aug 01:31:22 01:35:47 73° 257° (WSW) 01:40:15 145.980
50 SAT 19 Aug 01:34:29 01:37:39 36° 75° (ENE) 01:40:49 437.505
DX 1 19 Aug 01:41:11 01:45:09 35° 73° (ENE) 01:49:08 434.975-435.025
SPROUT 19 Aug 01:58:13 02:01:45 25° 263° (W) 02:05:17 437.525
DUCHIFAT 1 19 Aug 02:02:23 02:06:08 33° 287° (WNW) 02:09:53 145.980
M-CUBED/EXP-1 PRIME 19 Aug 02:09:08 02:11:07 13° 298° (WNW) 02:13:04 437.505
BUGSAT 1 19 Aug 02:11:40 02:15:41 71° 102° (ESE) 02:19:41 437.445
NO-84 19 Aug 02:18:54 02:21:49 56° 310° (NW) 02:24:38 435.350 FM
Gurwin Techsat 1B 19 Aug 02:22:33 02:26:35 22° 96° (E) 02:30:35 435.225
UKube-1 19 Aug 03:00:22 03:04:21 36° 261° (W) 03:08:21 .
Oscar 19 19 Aug 03:06:15 03:11:28 78° 284° (WNW) 03:16:39 437.125/150
ITUPSAT 1 19 Aug 03:09:24 03:12:59 22° 70° (ENE) 03:16:34 437.325
DX 1 19 Aug 03:18:58 03:21:21 14° 265° (W) 03:23:46 434.975-435.025
YUBILEINY 19 Aug 03:55:35 04:04:01 52° 80° (E) 04:12:24 435.215
Gurwin Techsat 1B 19 Aug 04:01:44 04:06:29 34° 289° (WNW) 04:11:14 435.225
BEESAT 19 Aug 04:12:55 04:17:38 67° 259° (WSW) 04:22:22 436.000
MOZHAYETS 4 19 Aug 04:16:38 04:21:09 76° 257° (WSW) 04:25:43
ITAMSAT 1 19 Aug 04:21:20 04:25:54 32° 98° (E) 04:30:27 435.822/435.867
CUBESAT XI-V 19 Aug 04:31:19 04:35:07 25° 71° (ENE) 04:38:55 437.345
KKS-1 19 Aug 04:45:49 04:48:29 16° 69° (ENE) 04:51:09 437.445
ITUPSAT 1 19 Aug 04:46:29 04:50:34 28° 262° (W) 04:54:39 437.325
AO-7 19 Aug 04:59:58 05:08:19 78° 106° (ESE) 05:16:36 .
STARS 19 Aug 05:29:59 05:33:08 20° 70° (ENE) 05:36:18 437.465
BEESAT 3 19 Aug 05:43:02 05:46:49 47° 114° (ESE) 05:50:41 437.485
AO-85 19 Aug 05:52:16 05:55:56 34° 113° (ESE) 05:59:30 145.980
BEESAT 2 19 Aug 05:53:16 05:55:44 16° 109° (ESE) 05:58:14 435.950
YUBILEINY 19 Aug 05:53:30 06:00:12 26° 275° (W) 06:06:56 435.215
ITAMSAT 1 19 Aug 06:01:08 06:05:07 23° 291° (WNW) 06:09:06 435.822/435.867
CUBESAT XI-V 19 Aug 06:08:44 06:12:20 23° 264° (W) 06:15:59 437.345
KKS-1 19 Aug 06:20:36 06:24:42 35° 261° (W) 06:28:48 437.445
DOVE 4 19 Aug 06:26:30 06:30:45 41° 98° (E) 06:34:46 437.250
XW-2F 19 Aug 06:30:57 06:31:33 10° 94° (E) 06:32:08 145.980 - 146.000
AO-7 19 Aug 06:54:50 07:00:07 19° 301° (WNW) 07:05:26 .
KAITUO 1B 19 Aug 06:57:41 07:00:29 20° 96° (E) 07:03:17 145.475/437.950
STARS 19 Aug 07:05:30 07:09:14 27° 262° (W) 07:12:58 437.465
LilacSat-2 19 Aug 07:11:20 07:15:05 47° 99° (E) 07:18:49 437.200
XW-2D 19 Aug 07:18:09 07:21:56 57° 100° (E) 07:25:43 145.860 - 145.880
BEESAT 3 19 Aug 07:23:15 07:24:37 11° 308° (NW) 07:25:59 437.485
STRAND 1 19 Aug 07:28:02 07:32:16 27° 70° (ENE) 07:36:30 437.568
XW-2B 19 Aug 07:29:05 07:32:56 79° 101° (E) 07:36:46 145.730 - 145.750
BEESAT 2 19 Aug 07:29:44 07:33:11 28° 302° (WNW) 07:36:42 435.950
NUDT-PHONESAT 19 Aug 07:32:48 07:36:30 61° 100° (E) 07:40:13 437.300
AO-85 19 Aug 07:34:23 07:36:22 13° 306° (NW) 07:38:20 145.980
CUTE 1.7 + AOD 2 19 Aug 07:37:56 07:40:03 13° 94° (E) 07:42:10 437.475
XW-2C 19 Aug 07:48:08 07:51:53 52° 283° (WNW) 07:55:37 145.795 - 145.815
CUTE-I 19 Aug 07:54:05 07:59:24 81° 285° (WNW) 08:04:42 437.470
XW-2F 19 Aug 08:02:13 08:05:44 35° 285° (WNW) 08:09:13 145.980 - 146.000
DOVE 4 19 Aug 08:06:06 08:07:55 12° 293° (WNW) 08:09:44 437.250
SEEDS 19 Aug 08:28:10 08:32:03 34° 98° (E) 08:35:55 437.485
KAITUO 1B 19 Aug 08:31:36 08:34:18 19° 288° (WNW) 08:37:00 145.475/437.950
HO-68 19 Aug 08:39:06 08:46:15 73° 104° (ESE) 08:53:23 435.675
FO-29 19 Aug 08:55:53 09:01:31 23° 67° (ENE) 09:06:51 435.910
UWE-3 19 Aug 08:59:02 09:03:00 37° 99° (E) 09:07:02 435.000/436.395/437.385
SO-50 19 Aug 08:59:04 09:02:39 22° 55° (NE) 09:06:15 436.795
CUBEBUG 2 19 Aug 09:01:52 09:06:04 78° 101° (E) 09:10:24 437.445
Tancredo 1 19 Aug 09:03:50 09:06:00 19° 128° (SE) 09:08:12 437.200
XW-2A 19 Aug 09:06:13 09:09:36 76° 284° (WNW) 09:13:00 145.665 - 145.685
STRAND 1 19 Aug 09:07:02 09:11:17 26° 263° (W) 09:15:33 437.568
PCSat 19 Aug 09:08:52 09:13:58 40° 62° (ENE) 09:19:00 145.827
CUTE 1.7 + AOD 2 19 Aug 09:12:00 09:15:56 35° 286° (WNW) 09:19:50 437.475
Oscar 11 19 Aug 09:17:59 09:21:11 20° 96° (E) 09:24:22 .
AAUSAT CUBESAT 2 19 Aug 09:19:30 09:23:39 66° 100° (E) 09:27:46 437.432
O/OREOS (USA 219) 19 Aug 09:23:37 09:25:36 13° 99° (E) 09:27:35 437.305
ISS 19 Aug 09:40:06 09:41:09 11° 125° (SE) 09:42:11 437.550
ZACube-1 19 Aug 09:43:03 09:47:20 69° 100° (E) 09:51:43 437.345
JUGNU 19 Aug 09:43:22 09:44:03 10° 160° (SSE) 09:44:45 437.505
nSIGHT-1 19 Aug 09:49:53 09:52:01 16° 126° (SE) 09:54:07 .
TIGRISAT 19 Aug 10:00:21 10:03:38 21° 72° (ENE) 10:06:52 435.000
SEEDS 19 Aug 10:05:08 10:07:22 14° 291° (WNW) 10:09:37 437.485
AO-73 19 Aug 10:05:29 10:09:45 69° 284° (WNW) 10:14:07 145.935
PRISM 19 Aug 10:06:34 10:09:23 18° 70° (ENE) 10:12:14 437.425
RS-15 19 Aug 10:07:26 10:14:51 19° 100° (E) 10:22:18 29.354- 29.394
EO-88 19 Aug 10:21:08 10:22:13 11° 94° (E) 10:23:17 145.990 - 145.960
HO-68 19 Aug 10:28:56 10:33:11 17° 298° (WNW) 10:37:28 435.675
NO-84 19 Aug 10:33:22 10:36:34 52° 50° (NE) 10:40:01 435.350 FM
UWE-3 19 Aug 10:37:00 10:39:06 13° 290° (WNW) 10:41:13 435.000/436.395/437.385
FO-29 19 Aug 10:38:20 10:46:01 61° 259° (W) 10:53:13 435.910
Tancredo 1 19 Aug 10:38:56 10:41:08 19° 321° (NW) 10:43:19 437.200
SO-50 19 Aug 10:39:05 10:43:03 29° 248° (WSW) 10:47:03 436.795
DELFI C3 19 Aug 10:43:05 10:46:54 46° 100° (E) 10:50:41 145.870
PCSat 19 Aug 10:53:10 10:56:59 20° 255° (WSW) 11:00:48 145.827
Oscar 11 19 Aug 10:53:38 10:57:12 25° 288° (WNW) 11:00:46 .
Max Valier Satellite 19 Aug 10:54:06 10:57:41 47° 100° (E) 11:01:16 145.860
UNISAT 6 19 Aug 11:00:01 11:04:22 61° 259° (WSW) 11:08:39 437.425
O/OREOS (USA 219) 19 Aug 11:00:23 11:04:34 39° 292° (WNW) 11:08:45 437.305
M-CUBED/EXP-1 PRIME 19 Aug 11:12:59 11:16:18 21° 65° (ENE) 11:19:43 437.505
ISS 19 Aug 11:14:11 11:17:17 40° 317° (NW) 11:20:25 437.550
nSIGHT-1 19 Aug 11:25:18 11:28:11 28° 319° (NW) 11:31:04 .
JUGNU 19 Aug 11:28:01 11:32:31 22° 167° (SSE) 11:36:59 437.505
AIST 2D 19 Aug 11:29:22 11:32:03 21° 73° (ENE) 11:34:45 435.315
TIGRISAT 19 Aug 11:36:36 11:40:08 24° 263° (W) 11:43:38 435.000
PRISM 19 Aug 11:40:57 11:44:25 26° 262° (W) 11:47:54 437.425
EO-88 19 Aug 11:52:39 11:55:54 30° 286° (WNW) 11:59:07 145.990 - 145.960
LO-87 19 Aug 11:55:36 11:58:25 22° 97° (E) 12:01:12 145.935 - 145.965
NANOSAT C BR1 19 Aug 11:57:05 12:00:06 19° 71° (ENE) 12:03:06 145.865
POLYITAN 1 19 Aug 11:59:35 12:02:56 23° 72° (ENE) 12:06:17 437.675
RS-15 19 Aug 12:13:34 12:25:42 88° 296° (WNW) 12:38:09 29.354- 29.394
QB50P2 19 Aug 12:13:55 12:17:52 40° 74° (ENE) 12:21:48 145.880/145.840
EO-79 19 Aug 12:15:22 12:19:15 37° 74° (ENE) 12:23:08 145.935-145.965
M-CUBED/EXP-1 PRIME 19 Aug 12:46:42 12:50:26 28° 259° (W) 12:54:21 437.505
DUCHIFAT 1 19 Aug 12:47:20 12:51:30 76° 77° (ENE) 12:55:40 145.980
BUGSAT 1 19 Aug 12:55:59 12:59:07 21° 72° (ENE) 13:02:13 437.445
AIST 2D 19 Aug 13:03:23 13:05:10 13° 265° (W) 13:06:57 435.315
ESTCUBE 1 19 Aug 13:12:35 13:17:03 58° 285° (WNW) 13:21:28 437.505/2401.250
JUGNU 19 Aug 13:15:54 13:21:03 31° 177° (S) 13:26:09 437.505
SRMSAT 19 Aug 13:24:53 13:28:22 16° 163° (SSE) 13:31:52 437.500
VELOX 1 19 Aug 13:27:35 13:31:33 33° 98° (E) 13:35:31 145.980
LO-87 19 Aug 13:29:42 13:31:35 14° 289° (WNW) 13:33:27 145.935 - 145.965
NANOSAT C BR1 19 Aug 13:32:11 13:35:35 24° 263° (W) 13:39:00 145.865
POLYITAN 1 19 Aug 13:35:31 13:38:35 20° 264° (W) 13:41:40 437.675
Gurwin Techsat 1B 19 Aug 13:38:10 13:41:56 20° 68° (ENE) 13:45:42 435.225
SPROUT 19 Aug 13:48:48 13:53:03 84° 105° (ESE) 13:57:16 437.525
QB50P2 19 Aug 13:52:22 13:53:44 11° 266° (W) 13:55:06 145.880/145.840
EO-79 19 Aug 13:53:20 13:55:04 12° 266° (W) 13:56:48 145.935-145.965
Oscar 19 19 Aug 14:16:52 14:21:59 82° 78° (ENE) 14:27:10 437.125/150
RS-15 19 Aug 14:30:44 14:39:58 24° 317° (NW) 14:49:20 29.354- 29.394
BUGSAT 1 19 Aug 14:31:11 14:34:19 21° 263° (W) 14:37:26 437.445
50 SAT 19 Aug 14:33:58 14:37:21 87° 282° (WNW) 14:40:41 437.505
UKube-1 19 Aug 14:52:50 14:57:04 56° 101° (E) 15:01:17 .
JUGNU 19 Aug 15:04:39 15:09:37 28° 187° (S) 15:14:33 437.505
VELOX 1 19 Aug 15:05:00 15:07:40 16° 291° (WNW) 15:10:21 145.980
DX 1 19 Aug 15:10:53 15:15:06 50° 285° (WNW) 15:19:17 434.975-435.025
SRMSAT 19 Aug 15:12:05 15:17:00 27° 172° (S) 15:21:56 437.500
Gurwin Techsat 1B 19 Aug 15:16:37 15:21:32 39° 261° (W) 15:26:28 435.225
ITAMSAT 1 19 Aug 15:33:37 15:37:57 27° 70° (ENE) 15:42:16 435.822/435.867
